East Swanzey, NH

12:10 AM EDT on September 30, 2016 (GMT -0400)
Dillant-Hopkins

Weather History for KEEN - February, 2014

Change the Weather History Date:

Friday, February 28, 2014

  Actual Average Record
Temperature  
Mean Temperature 10 °F -  
Max Temperature 19 °F 39 °F 60 °F (1954)
Min Temperature 0 °F 15 °F -27 °F (1934)
Degree Days  
Heating Degree Days 56    
Moisture  
Dew Point -11 °F    
Average Humidity 41    
Maximum Humidity 66    
Minimum Humidity 23    
Precipitation  
Precipitation 0.00 in - - ()
Sea Level Pressure  
Sea Level Pressure 30.23 in    
Wind  
Wind Speed 5 mph (WNW)    
Max Wind Speed 13 mph    
Max Gust Speed 23 mph    
Visibility 10 miles    
Events      
Averages and records for this station are not official NWS values.
T = Trace of Precipitation, MM = Missing Value Source: NWS Daily Summary

Daily Weather History Graph

Daily Weather History Graph

Search for Another Location

Airport or City:

Trip Planner

Search our weather history database for the weather conditions in past years. The results will help you decide how hot, cold, wet, or windy it might be!

Date:

Astronomy

Feb. 28, 2014 Rise Set
Actual Time 6:26 AM EST 5:37 PM EST
Civil Twilight 5:58 AM EST 6:05 PM EST
Nautical Twilight 5:25 AM EST 6:38 PM EST
Astronomical Twilight 4:52 AM EST 7:11 PM EST
Moon 5:39 AM EST (2/28) 5:11 PM EST (2/28)
Length of Visible Light 12h 07m
Length of Day
11h 10m
Waning Crescent, 1% of the Moon is Illuminated
Feb 28
Waning Crescent
Mar 1
New
Mar 8
First Quarter
Mar 16
Full
Mar 23
Last Quarter

Hourly Weather History & Observations

Time (EST) Temp. Windchill Dew Point Humidity Pressure Visibility Wind Dir Wind Speed Gust Speed Precip Events Conditions
12:15 AM - - - N/A% 29.91 in 10.0 mi WNW 9.2 mph 20.7 mph N/A   Clear
12:35 AM 8.6 °F -1.3 °F -9.4 °F 44% 29.93 in 10.0 mi NW 5.8 mph - N/A   Clear
12:55 AM - - - N/A% 29.93 in 10.0 mi West 6.9 mph - N/A   Clear
1:15 AM 8.6 °F 0.1 °F -7.6 °F 48% 29.94 in 10.0 mi West 4.6 mph - N/A   Clear
1:35 AM 8.6 °F -1.3 °F -9.4 °F 44% 29.95 in 10.0 mi WNW 5.8 mph 17.3 mph N/A   Clear
1:55 AM 8.6 °F -2.6 °F -9.4 °F 44% 29.96 in 10.0 mi West 6.9 mph 19.6 mph N/A   Clear
2:15 AM 8.6 °F -3.7 °F -11.2 °F 40% 29.98 in 10.0 mi NW 8.1 mph 21.9 mph N/A   Clear
2:35 AM 6.8 °F -6.9 °F -13.0 °F 40% 29.99 in 10.0 mi WNW 9.2 mph - N/A   Clear
2:55 AM 6.8 °F -4.8 °F -13.0 °F 40% 30.00 in 10.0 mi West 6.9 mph - N/A   Clear
3:15 AM 6.8 °F -0.1 °F -13.0 °F 40% 30.01 in 10.0 mi WNW 3.5 mph - N/A   Clear
3:35 AM 6.8 °F -5.9 °F -13.0 °F 40% 30.02 in 10.0 mi WNW 8.1 mph - N/A   Clear
3:55 AM 6.8 °F -2.0 °F -14.8 °F 37% 30.04 in 10.0 mi West 4.6 mph - N/A   Clear
4:15 AM 6.8 °F -0.1 °F -14.8 °F 37% 30.05 in 10.0 mi West 3.5 mph - N/A   Clear
4:35 AM 3.2 °F -6.2 °F -16.6 °F 39% 30.06 in 10.0 mi South 4.6 mph - N/A   Clear
4:55 AM 3.2 °F -4.2 °F -14.8 °F 43% 30.08 in 10.0 mi South 3.5 mph - N/A   Clear
5:15 AM 1.4 °F -6.2 °F -16.6 °F 43% 30.10 in 10.0 mi SSW 3.5 mph - N/A   Clear
5:35 AM -0.4 °F -8.3 °F -14.8 °F 51% 30.12 in 10.0 mi SSW 3.5 mph - N/A   Clear
5:55 AM -0.4 °F - -14.8 °F 51% 30.13 in 10.0 mi Calm Calm - N/A   Clear
6:15 AM -0.4 °F -8.3 °F -14.8 °F 51% 30.15 in 10.0 mi SSW 3.5 mph - N/A   Clear
6:35 AM 1.4 °F - -11.2 °F 56% 30.16 in 10.0 mi Calm Calm - N/A   Clear
6:55 AM -0.4 °F - -13.0 °F 55% 30.17 in 10.0 mi Calm Calm - N/A   Clear
7:15 AM -0.4 °F - -14.8 °F 51% 30.19 in 10.0 mi Calm Calm - N/A   Clear
7:35 AM -0.4 °F - -11.2 °F 60% 30.20 in 10.0 mi Calm Calm - N/A   Clear
7:55 AM 1.4 °F - -9.4 °F 61% 30.21 in 10.0 mi Calm Calm - N/A   Clear
8:15 AM 5.0 °F - -7.6 °F 56% 30.23 in 10.0 mi Calm Calm - N/A   Clear
8:35 AM 8.6 °F -2.6 °F -7.6 °F 48% 30.25 in 10.0 mi WNW 6.9 mph - N/A   Clear
8:55 AM 8.6 °F -4.7 °F -9.4 °F 44% 30.25 in 10.0 mi NW 9.2 mph - N/A   Clear
9:15 AM 8.6 °F -5.5 °F -9.4 °F 44% 30.25 in 10.0 mi NNW 10.4 mph 18.4 mph N/A   Clear
9:35 AM 10.4 °F -1.5 °F -9.4 °F 41% 30.26 in 10.0 mi NW 8.1 mph - N/A   Clear
9:55 AM 12.2 °F 4.3 °F -9.4 °F 38% 30.27 in 10.0 mi WSW 4.6 mph - N/A   Clear
10:15 AM 12.2 °F -1.0 °F -11.2 °F 34% 30.28 in 10.0 mi NNW 10.4 mph 16.1 mph N/A   Clear
10:35 AM 12.2 °F -0.2 °F -13.0 °F 32% 30.28 in 10.0 mi NNW 9.2 mph 16.1 mph N/A   Clear
10:55 AM 14.0 °F 1.2 °F -11.2 °F 32% 30.28 in 10.0 mi NNW 10.4 mph - N/A   Clear
11:15 AM 14.0 °F 0.5 °F -11.2 °F 32% 30.27 in 10.0 mi North 11.5 mph 17.3 mph N/A   Clear
11:35 AM 15.8 °F 4.2 °F -11.2 °F 30% 30.27 in 10.0 mi NNW 9.2 mph - N/A   Clear
11:55 AM 15.8 °F 7.2 °F -11.2 °F 30% 30.26 in 10.0 mi NW 5.8 mph 16.1 mph N/A   Clear
12:15 PM 15.8 °F 4.2 °F -11.2 °F 30% 30.26 in 10.0 mi NW 9.2 mph - N/A   Clear
12:35 PM 17.6 °F 7.3 °F -11.2 °F 27% 30.26 in 10.0 mi NW 8.1 mph - N/A   Clear
12:55 PM 17.6 °F 10.7 °F -11.2 °F 27% 30.26 in 10.0 mi West 4.6 mph - N/A   Clear
1:15 PM 17.6 °F 4.3 °F -11.2 °F 27% 30.27 in 10.0 mi WNW 12.7 mph 23.0 mph N/A   Clear
1:35 PM 17.6 °F 6.4 °F -11.2 °F 27% 30.28 in 10.0 mi WNW 9.2 mph 16.1 mph N/A   Clear
1:55 PM 19.4 °F 7.2 °F -11.2 °F 25% 30.28 in 10.0 mi NW 11.5 mph 16.1 mph N/A   Clear
2:15 PM 19.4 °F 9.5 °F -11.2 °F 25% 30.28 in 10.0 mi NW 8.1 mph - N/A   Clear
2:35 PM 19.4 °F 11.5 °F -11.2 °F 25% 30.29 in 10.0 mi NW 5.8 mph - N/A   Clear
2:55 PM 19.4 °F 8.6 °F -11.2 °F 25% 30.30 in 10.0 mi West 9.2 mph - N/A   Clear
3:15 PM 19.4 °F 14.3 °F -11.2 °F 25% 30.29 in 10.0 mi WSW 3.5 mph - N/A   Clear
3:35 PM 19.4 °F 9.5 °F -9.4 °F 28% 30.30 in 10.0 mi NW 8.1 mph - N/A   Clear
3:55 PM 19.4 °F 9.5 °F -11.2 °F 25% 30.31 in 10.0 mi WNW 8.1 mph - N/A   Clear
4:15 PM 19.4 °F 10.4 °F -11.2 °F 25% 30.32 in 10.0 mi WNW 6.9 mph - N/A   Clear
4:35 PM 19.4 °F 11.5 °F -11.2 °F 25% 30.32 in 10.0 mi WSW 5.8 mph - N/A   Clear
4:55 PM 19.4 °F 12.8 °F -11.2 °F 25% 30.33 in 10.0 mi WNW 4.6 mph - N/A   Clear
5:15 PM 17.6 °F 10.7 °F -11.2 °F 27% 30.32 in 10.0 mi NW 4.6 mph - N/A   Clear
5:35 PM 17.6 °F 10.7 °F -14.8 °F 23% 30.33 in 10.0 mi NNW 4.6 mph - N/A   Clear
5:55 PM 17.6 °F - -14.8 °F 23% 30.33 in 10.0 mi Calm Calm - N/A   Clear
6:15 PM 14.0 °F - -14.8 °F 27% 30.33 in 10.0 mi Calm Calm - N/A   Clear
6:35 PM 12.2 °F - -9.4 °F 38% 30.34 in 10.0 mi Calm Calm - N/A   Clear
6:55 PM 10.4 °F - -9.4 °F 41% 30.34 in 10.0 mi Calm Calm - N/A   Clear
7:15 PM 10.4 °F - -7.6 °F 44% 30.35 in 10.0 mi Calm Calm - N/A   Clear
7:35 PM 10.4 °F - -7.6 °F 44% 30.35 in 10.0 mi Calm Calm - N/A   Clear
7:55 PM 8.6 °F - -9.4 °F 44% 30.36 in 10.0 mi Calm Calm - N/A   Clear
8:15 PM 6.8 °F -0.1 °F -7.6 °F 52% 30.36 in 10.0 mi SSW 3.5 mph - N/A   Clear
8:35 PM 6.8 °F - -9.4 °F 48% 30.37 in 10.0 mi Calm Calm - N/A   Clear
8:55 PM 6.8 °F - -7.6 °F 52% 30.38 in 10.0 mi Calm Calm - N/A   Clear
9:15 PM 6.8 °F - -7.6 °F 52% 30.38 in 10.0 mi Calm Calm - N/A   Clear
9:35 PM 3.2 °F - -9.4 °F 56% 30.38 in 10.0 mi Calm Calm - N/A   Clear
9:55 PM 5.0 °F - -7.6 °F 56% 30.39 in 10.0 mi Calm Calm - N/A   Clear
10:15 PM 3.2 °F - -7.6 °F 61% 30.39 in 10.0 mi Calm Calm - N/A   Clear
10:35 PM 1.4 °F - -9.4 °F 61% 30.40 in 10.0 mi Calm Calm - N/A   Clear
10:55 PM 3.2 °F - -7.6 °F 61% 30.40 in 10.0 mi Calm Calm - N/A   Clear
11:15 PM 1.4 °F - -9.4 °F 61% 30.40 in 10.0 mi Calm Calm - N/A   Clear
11:35 PM 1.4 °F - -7.6 °F 66% 30.41 in 10.0 mi Calm Calm - N/A   Clear
11:55 PM -0.4 °F -8.3 °F -9.4 °F 66% 30.41 in 10.0 mi SSW 3.5 mph - N/A   Clear